Regional Weather Roundup
Issued by NWS Grand Forks, ND

Home | Current Version | Previous Version | Text Only | Print | Product List | Glossary Off
Versions: 1 2 3 4 5 6 7 8 9 10 11 12 13 14 15 16 17 18 19 20 21 22 23 24 25 26 27 28 29 30 31 32 33 34 35 36 37 38 39 40 41 42 43 44 45 46 47 48 49 50

000
ASUS43 KFGF 011431
RWRFGF
PRAIRIE TO PINES  WEATHER ROUNDUP
NATIONAL WEATHER SERVICE EASTERN NORTH DAKOTA/GRAND FORKS ND
800 AM CST SUN FEB 01 2015

 **SATELLITE DATA USED TO AUGMENT SKY COVER AT AUTOMATED STATIONS**
 *****  WEATHER ACROSS EASTERN NORTH DAKOTA  *****

CITY           SKY/WX    TMP DP  RH WIND       PRES   REMARKS
GRAND FORKS    MOCLDY   -12 -20  67 N12       30.58R WCI -32
GRAND FRKS AFB PTCLDY   -13 -21  66 N9        30.58R WCI -31
GRAND FRKS NWS   N/A    -13 N/A N/A N12         N/A  WCI -33
DEVILS LAKE    PTCLDY   -11 -22  58 N5        30.50S WCI -23
FARGO          CLOUDY    -6 -15  65 N18       30.50R WCI -29
WAHPETON ARPT  MOSUNNY    0 -11  60 N20       30.44R WCI -22
$$

 ***** WEATHER ACROSS CENTRAL AND WESTERN NORTH DAKOTA  *****

CITY           SKY/WX    TMP DP  RH WIND       PRES   REMARKS
BISMARCK       MOCLDY    -7 -15  68 N10       30.51R WCI -25
MINOT          MOCLDY   -12 -19  71 NW7       30.51S WCI -27
JAMESTOWN      MOCLDY    -9 -17  68 N15       30.47R WCI -31
MINOT AFB      MOCLDY   -13 -19  75 NW6       30.52S WCI -27
GARRISON         N/A    -13 -19  75 NW8       30.49R WCI -30
WILLISTON      PTCLDY   -14 -18  82 CALM      30.50S
DICKINSON      CLEAR     -9 -14  78 NW3       30.40R
HETTINGER      CLOUDY    -3  -9  75 NW12      30.40R WCI -21
$$

 *****  OTHER AIRPORT OBSERVATIONS IN OUR AREA  *****

CITY           SKY/WX    TMP DP  RH WIND       PRES   REMARKS
WALHALLA         N/A    -13 -20  70 NW5       30.60S WCI -25
GRAFTON AIRPOR NOT AVBL
VALLEY CITY AR CLOUDY    -8 -15  71 N15       30.47R WCI -29
CANDO          FAIR     -15 -20  76 NW6       30.54R WCI -29
CAVALIER APRT  FAIR     -11 -18  70 NW6       30.60R WCI -25
GWINNER        MOSUNNY   -4 -13  65 N24       30.44R WCI -29
SHEYENNE NWR     N/A     -8 -18  62 N13       29.95  WCI -28
ROLLA          FAIR     -17 -22  76 SW7       30.48F WCI -33
 ***** THE ABOVE OBSERVATIONS ARE NON NWS ARE NOT QUALITY
       CONTROLLED AND MAY MIS-REPORT RAIN FOR SNOW...
$$

  *****  WEATHER ACROSS NORTHERN MINNESOTA  *****

CITY           SKY/WX    TMP DP  RH WIND       PRES   REMARKS
FLAG ISLAND    MOCLDY   -22 -27  76 NW6       30.51F WCI -38
WARROAD        MOCLDY   -20 -27  69 CALM      30.51F
ROSEAU         MOCLDY   -17 -24  70 N3        30.54S
HALLOCK        CLOUDY   -15 -22  70 N5        30.58S WCI -27
THF RVR FALLS  PTCLDY   -15 -18  84 N12       30.50S WCI -36
BAUDETTE       MOCLDY   -17 -22  78 NW7       30.49S WCI -33
WASKISH        MOCLDY   -17 -22  76 CALM      30.46F
CROOKSTON      PTCLDY   -11 -18  70 N10       30.56R WCI -30
STEPHEN NDAWN    N/A    -15 -22  70 N8          N/A  WCI -32
GREENBUSH NDAW   N/A    -17 -24  70 N8          N/A  WCI -34
$$
  *****  WEATHER ACROSS CENTRAL AND WEST MINNESOTA  *****

CITY           SKY/WX    TMP DP  RH WIND       PRES   REMARKS
FOSSTON        PTCLDY   -15 -20  76 N10       30.46R WCI -35
BEMIDJI        MOCLDY   -14 -19  78 N3        30.42R
PARK RAPIDS    FAIR      -7 -16  65 N9G17     30.35S WCI -24
ELBOW LAKE     CLOUDY     0  -8  69 N13       30.35R WCI -18
WADENA         CLEAR     -4 -11  71 N12       30.34R WCI -22
DETROIT LAKES  PTCLDY    -4 -15  59 N6        30.40R WCI -16
MOORHEAD       PTCLDY    -6 -11  77 N21       30.48S WCI -30
FERGUS FALLS   PTCLDY     0 -15  50 N9        30.43R WCI -16
MORRIS MN      PTCLDY     3  -6  66 N15       30.33R WCI -15
STAPLES        CLOUDY    -2  -9  71 NE9       30.34R WCI -18
$$
  *****  WEATHER ELSEWHERE ACROSS MINNESOTA  *****

CITY           SKY/WX    TMP DP  RH WIND       PRES   REMARKS
DULUTH         PTCLDY    -3 -10  72 N9        30.31R WCI -19
INTRNTL FALLS  MOCLDY   -18 -24  74 N5        30.47R HAZE    WCI -31
ELY            PTCLDY   -18 -24  76 CALM      30.39S
CLOQUET        PTCLDY    -2  -9  71 N8        30.32R WCI -17
WHEATON        PTCLDY    -2  -9  71 NW18G24   30.42R WCI -24
BRAINERD       MOCLDY    -1  -9  68 N10       30.35R WCI -17
HIBBING        PTCLDY   -11 -19  68 N8        30.37S WCI -28
ALEXANDRIA     PTCLDY     1  -7  68 N16       30.30R WCI -19
SAINT CLOUD    MOCLDY     5  -3  69 N12       30.29R WCI -11
MINNEAPOLIS    LGT SNOW  13   5  70 NE18      30.24R WCI  -4
$$

  *****  WEATHER ACROSS SOUTH DAKOTA  *****

CITY           SKY/WX    TMP DP  RH WIND       PRES   REMARKS
SIOUX FALLS    HVY SNOW   7   3  84 N23G32    30.16R VSB 1/4 WCI -14
BROOKINGS      NOT AVBL
WATERTOWN      CLOUDY    -2  -7  79 N20       30.26R WCI -24
HURON          LGT SNOW   0  -6  76 N20G29    30.35R WCI -22
SISSETON         N/A     -4 -10  75 N23       30.40R WCI -29
ABERDEEN       FLURRIES  -1  -9  68 N20G29    30.41R WCI -23
MITCHELL       LGT SNOW   2  -3  80 N21       30.31R VSB 3/4 WCI -20
PIERRE         LGT SNOW  -2  -8  76 N20       30.40R WCI -24
MOBRIDGE       CLOUDY    -4 -11  72 N17       30.41R WCI -26
RAPID CITY     PTCLDY     0  -4  83 N21       30.31R WCI -22
$$

  *****  SOME WEATHER IN NEARBY STATES *****

CITY           SKY/WX    TMP DP  RH WIND       PRES   REMARKS
GLASGOW MT     PTCLDY    -6 -11  79 SE8       30.43F WCI -21
GREAT FALLS MT MOCLDY    -1  -4  87 SE6       30.22F WCI -13
CHEYENNE WY    CLOUDY    14  10  84 N16G22    30.04R WCI  -2
SCOTTSBLUFF NE FLURRIES  17  11  77 N10       30.21R WCI   5
OMAHA NE       SNOW      23  21  92 N26G33    29.90R VSB 1/2 WCI   6
DES MOINES IA  LGT SNOW  33  30  88 NE12      29.79S VSB 3/4 WCI  24
DAVENPORT IA   SNOW      30  27  88 NE22G29   29.85F VSB 1/2 WCI  17
CHICAGO IL     SNOW      30  29  96 NE15      29.93F VSB 1/2 WCI  19
EAU CLAIRE WI  LGT SNOW  11   3  70 NE12      30.22R WCI  -3
LA CROSSE WI   LGT SNOW  16  10  77 NE10      30.14S VSB 1   WCI   4
$$

  *****  SOME NATIONAL WEATHER *****

CITY           SKY/WX    TMP DP  RH WIND       PRES   REMARKS
LA GUARDIA NY  PTSUNNY   29  16  58 W8        30.22F WCI  21
RALEIGH NC     PTSUNNY   40  20  44 CALM      30.29R
ATLANTA GA     PTSUNNY   43  33  68 SE7       30.18F
NEW ORLEANS LA PTSUNNY   61  58  90 SE7       30.01R
OKLAHOMA CITY  CLOUDY    40  33  76 NW29G36   29.93R
ALBUQUERQUE NM PTCLDY    33  29  85 CALM      30.08R
SALT LAKE CITY PTCLDY    28  24  85 SE7       30.21R WCI  21
LOS ANGELES CA CLEAR     52  49  89 E3        30.05R
BOISE ID       CLOUDY    35  23  61 SE9       30.17F
SEATTLE WA     CLOUDY    41  40  96 S5        30.05F FOG
$$

*** WEATHER ACROSS MANITOBA...SASKATCHEWAN AND ONTARIO ***
                ***ONTARIO***

CITY           SKY/WX    TMP DP  RH WIND       PRES   REMARKS
GERALDTON      PTCLDY   -36 -42  74 W2        30.39F
THUNDER BAY    PTCLDY   -18 -26  69 SW6       30.50S WCI -33
SIOUX LOOKOUT  PTCLDY   -33 -40  68 CALM      30.44F
TORONTO        CLOUDY    10   1  67 N16       30.26R WCI  -7
BIG TROUT LK   CLEAR    -26 -33  68 W10       30.34S WCI -48
PICKLE LAKE    CLEAR    -27 -35  68 W8        30.37F WCI -48
DRYDEN         CLEAR    -26 -31  75 W6        30.44F WCI -42
KENORA         PTCLDY   -26 -31  75 N7        30.47S WCI -44
$$
                *** MANITOBA***

CITY           SKY/WX    TMP DP  RH WIND       PRES   REMARKS
BRANDON        MOCLDY   -22 -29  69 W10       30.54F WCI -44
DAUPHIN        CLEAR    -15 -24  64 W12       30.53F WCI -36
ISLAND LAKE    CLEAR    -26 -33  68 W9        30.42F WCI -47
PILOT MOUND      N/A    -20 -27  69 W5          N/A  WCI -33
THE PAS        PTCLDY   -26 -31  75 SW5       30.46F WCI -40
THOMPSON       CRYSTALS -27 -35  68 SW5       30.35F WCI -42
WINNIPEG       PTCLDY   -20 -27  69 W5        30.60F WCI -33
LYNN LAKE      CLEAR    -26 -31  75 W5        30.27F WCI -40
CHURCHILL      CLEAR    -26 -33  68 W10       30.26F WCI -48
GILLAM         CLEAR    -29 -35  75 SW7       30.32F WCI -48
$$
                ***SASKATCHEWAN***

CITY           SKY/WX    TMP DP  RH WIND       PRES   REMARKS
ESTEVAN        PTCLDY   -15 -20  76 W3        30.48S
KINDERSLEY     PTCLDY   -11 -17  77 S6        30.29F WCI -25
LLOYDMINSTER   PTCLDY    -6  -9  84 S10       30.21F WCI -23
PRINCE ALBERT  PTCLDY   -29 -36  68 NE2       30.40F
REGINA         CLEAR    -15 -18  84 S6        30.45F WCI -29
YORKTON        CLEAR    -20 -26  76 S10       30.47F WCI -41
N. BATTLEFORD  CLEAR     -6  -9  84 SE6       30.35F WCI -18
LA RONGE       CLEAR    -33 -38  75 S2        30.34F
SASKATOON      CLEAR    -11 -17  77 SW7       30.41F WCI -26
SWIFT CURRENT  CLEAR     -2  -6  84 SW10      30.29F WCI -19
$$
NOTE: THESE ARE AUTOMATED STATIONS WITH LIMITED QUALITY CONTROL
      "FAIR" INDICATES FEW OR NO CLOUDS BELOW 12,000 FEET WITH NO
      SIGNIFICANT WEATHER AND/OR OBSTRUCTIONS TO VISIBILITY.
      SKY/WX - SKY CONDITION AND SIGNIFICANT WEATHER.
      TMP - AIR TEMPERATURE.    DP   - DEWPOINT TEMPERATURE.
      RH  - RELATIVE HUMIDITY.  PRES - PRESSURE.
      HX  - HEAT INDEX.         WCI  - WIND CHILL INDEX.
$



USA.gov is the U.S. government's official web portal to all federal, state and local government web resources and services.